TOM8PX EGHH-GCLP

Flight info

Callsign TOM8PX
Flight time N/A
Altitude 35000
Route THRED Z171 LELNA DCT POZOF DCT BALDA DCT BATAX DCT PINOX DCT OSLAD UR724 IBALU UN857 TERTO
Aircraft B738/M-SDFGHIJ1RWXYZ/LB1

Departure

Time 2026-04-30 12:50
Airport Bournemouth Airport (EGHH)

Arrival

Time N/A
Airport Gran Canaria Airport (GCLP)
Time Latitude Longitude Altitude Speed Heading
2026-04-30 12:29 50.77827 -1.83359 43 ft 0 kts 86°
2026-04-30 12:37 50.77826 -1.83390 40 ft 4 kts 86°
2026-04-30 12:37 50.77825 -1.83425 40 ft 3 kts 88°
2026-04-30 12:38 50.77829 -1.83461 41 ft 4 kts 137°
2026-04-30 12:38 50.77850 -1.83475 43 ft 4 kts 174°
2026-04-30 12:38 50.77876 -1.83482 45 ft 3 kts 172°
2026-04-30 12:38 50.77879 -1.83482 45 ft 1 kts 172°
2026-04-30 12:42 50.77876 -1.83482 45 ft 1 kts 172°
2026-04-30 12:42 50.77865 -1.83479 45 ft 3 kts 171°
2026-04-30 12:42 50.77843 -1.83475 45 ft 3 kts 174°
2026-04-30 12:42 50.77819 -1.83472 45 ft 3 kts 175°
2026-04-30 12:43 50.77791 -1.83469 45 ft 5 kts 176°
2026-04-30 12:43 50.77756 -1.83467 43 ft 5 kts 178°
2026-04-30 12:43 50.77720 -1.83471 45 ft 6 kts 191°
2026-04-30 12:43 50.77663 -1.83477 45 ft 10 kts 180°
2026-04-30 12:44 50.77600 -1.83509 45 ft 9 kts 217°
2026-04-30 12:44 50.77578 -1.83602 45 ft 9 kts 264°
2026-04-30 12:44 50.77576 -1.83702 44 ft 9 kts 271°
2026-04-30 12:44 50.77582 -1.83800 43 ft 9 kts 281°
2026-04-30 12:45 50.77591 -1.83895 44 ft 9 kts 281°
2026-04-30 12:45 50.77606 -1.83989 44 ft 9 kts 285°
2026-04-30 12:45 50.77622 -1.84097 43 ft 11 kts 283°
2026-04-30 12:45 50.77642 -1.84218 40 ft 12 kts 288°
2026-04-30 12:46 50.77671 -1.84350 42 ft 13 kts 289°
2026-04-30 12:46 50.77696 -1.84493 42 ft 13 kts 283°
2026-04-30 12:46 50.77715 -1.84633 43 ft 13 kts 279°
2026-04-30 12:46 50.77735 -1.84768 42 ft 13 kts 288°
2026-04-30 12:47 50.77772 -1.84890 42 ft 12 kts 299°
2026-04-30 12:47 50.77814 -1.85009 42 ft 13 kts 299°
2026-04-30 12:47 50.77855 -1.85136 43 ft 13 kts 283°
2026-04-30 12:47 50.77839 -1.85273 40 ft 13 kts 255°
2026-04-30 12:48 50.77817 -1.85404 42 ft 12 kts 256°
2026-04-30 12:48 50.77796 -1.85533 40 ft 12 kts 255°
2026-04-30 12:48 50.77775 -1.85654 41 ft 9 kts 243°
2026-04-30 12:48 50.77724 -1.85718 41 ft 9 kts 214°
2026-04-30 12:49 50.77735 -1.85783 41 ft 9 kts
2026-04-30 12:49 50.77767 -1.85706 41 ft 9 kts 72°
2026-04-30 12:49 50.77775 -1.85659 41 ft 0 kts 76°
2026-04-30 12:49 50.77775 -1.85657 41 ft 3 kts 76°
2026-04-30 12:50 50.77840 -1.85264 41 ft 74 kts 75°
2026-04-30 12:50 50.78030 -1.84126 41 ft 138 kts 76°
2026-04-30 12:50 50.78306 -1.82515 491 ft 158 kts 75°
2026-04-30 12:50 50.78626 -1.80827 1285 ft 164 kts 76°
2026-04-30 12:51 50.78918 -1.78938 1676 ft 189 kts 95°
2026-04-30 12:51 50.78334 -1.77007 1960 ft 211 kts 138°
2026-04-30 12:51 50.76941 -1.75979 2255 ft 238 kts 161°
2026-04-30 12:51 50.75284 -1.75411 2875 ft 247 kts 163°
2026-04-30 12:52 50.73617 -1.74860 3840 ft 243 kts 164°
2026-04-30 12:52 50.71957 -1.74319 4671 ft 245 kts 165°
2026-04-30 12:52 50.70279 -1.73756 5442 ft 247 kts 165°
2026-04-30 12:52 50.68574 -1.73164 6120 ft 253 kts 165°
2026-04-30 12:53 50.66858 -1.72558 6914 ft 254 kts 165°
2026-04-30 12:53 50.65107 -1.71931 7534 ft 260 kts 165°
2026-04-30 12:53 50.63339 -1.71292 8308 ft 261 kts 165°
2026-04-30 12:53 50.61533 -1.70638 8986 ft 265 kts 165°
2026-04-30 12:54 50.59772 -1.69998 9865 ft 263 kts 166°
2026-04-30 12:54 50.57994 -1.69349 10532 ft 265 kts 165°
2026-04-30 12:54 50.56124 -1.68665 10694 ft 288 kts 165°
2026-04-30 12:54 50.54107 -1.67929 10878 ft 308 kts 165°
2026-04-30 12:55 50.51953 -1.67202 11096 ft 326 kts 171°
2026-04-30 12:55 50.49635 -1.67327 11483 ft 342 kts 187°
2026-04-30 12:55 50.47344 -1.68485 12063 ft 351 kts 202°
2026-04-30 12:55 50.45177 -1.70305 12718 ft 355 kts 205°
2026-04-30 12:56 50.43034 -1.72188 13289 ft 360 kts 205°
2026-04-30 12:56 50.40839 -1.74132 13904 ft 364 kts 205°
2026-04-30 12:56 50.38621 -1.76087 14465 ft 367 kts 205°
2026-04-30 12:56 50.36385 -1.78043 15062 ft 369 kts 205°
2026-04-30 12:57 50.34136 -1.79998 15665 ft 371 kts 204°
2026-04-30 12:57 50.31874 -1.81954 16245 ft 373 kts 204°
2026-04-30 12:57 50.29595 -1.83917 16794 ft 376 kts 204°
2026-04-30 12:57 50.27302 -1.85888 17425 ft 376 kts 204°
2026-04-30 12:58 50.24999 -1.87864 17991 ft 379 kts 204°
2026-04-30 12:58 50.22678 -1.89852 18518 ft 382 kts 203°
2026-04-30 12:58 50.20340 -1.91852 18967 ft 385 kts 203°
2026-04-30 12:58 50.17987 -1.93864 19443 ft 387 kts 203°
2026-04-30 12:59 50.15616 -1.95889 19892 ft 390 kts 204°
2026-04-30 12:59 50.13224 -1.97929 20323 ft 394 kts 204°
2026-04-30 12:59 50.10814 -1.99982 20785 ft 396 kts 204°
2026-04-30 12:59 50.08394 -2.02043 21232 ft 398 kts 204°
2026-04-30 13:00 50.05952 -2.04119 21665 ft 401 kts 204°
2026-04-30 13:00 50.03494 -2.06208 22085 ft 404 kts 204°
2026-04-30 13:00 50.01022 -2.08306 22512 ft 406 kts 204°
2026-04-30 13:00 49.98535 -2.10412 22929 ft 409 kts 204°
2026-04-30 13:01 49.96020 -2.12492 23333 ft 411 kts 203°
2026-04-30 13:01 49.93465 -2.14517 23676 ft 415 kts 203°
2026-04-30 13:01 49.90873 -2.16535 23894 ft 419 kts 203°
2026-04-30 13:01 49.88254 -2.18566 24248 ft 421 kts 203°
2026-04-30 13:02 49.85632 -2.20603 24611 ft 422 kts 203°
2026-04-30 13:02 49.83005 -2.22648 24940 ft 424 kts 203°
2026-04-30 13:02 49.80360 -2.24710 25247 ft 427 kts 204°
2026-04-30 13:02 49.77704 -2.26782 25560 ft 429 kts 204°
2026-04-30 13:03 49.75034 -2.28866 25882 ft 431 kts 204°
2026-04-30 13:03 49.72350 -2.30960 26203 ft 433 kts 204°
2026-04-30 13:03 49.69659 -2.33056 26503 ft 435 kts 204°
2026-04-30 13:03 49.66950 -2.35165 26797 ft 437 kts 204°
2026-04-30 13:04 49.64231 -2.37279 27092 ft 438 kts 204°
2026-04-30 13:04 49.61501 -2.39398 27384 ft 440 kts 204°
2026-04-30 13:04 49.58762 -2.41521 27672 ft 442 kts 204°
2026-04-30 13:04 49.56010 -2.43652 27949 ft 444 kts 204°
2026-04-30 13:05 49.53284 -2.45760 28214 ft 445 kts 204°
2026-04-30 13:05 49.50510 -2.47902 28478 ft 447 kts 204°
2026-04-30 13:05 49.47729 -2.50048 28795 ft 447 kts 204°
2026-04-30 13:06 49.42196 -2.54309 29683 ft 442 kts 204°
2026-04-30 13:06 49.39447 -2.56423 30067 ft 441 kts 204°
2026-04-30 13:06 49.36702 -2.58529 30357 ft 441 kts 204°
2026-04-30 13:06 49.33957 -2.60633 30648 ft 441 kts 204°
2026-04-30 13:07 49.31218 -2.62729 30972 ft 439 kts 204°
2026-04-30 13:07 49.28488 -2.64816 31284 ft 438 kts 204°
2026-04-30 13:07 49.25768 -2.66894 31599 ft 437 kts 204°
2026-04-30 13:07 49.23059 -2.68960 32020 ft 433 kts 204°
2026-04-30 13:08 49.20370 -2.71009 32311 ft 432 kts 203°
2026-04-30 13:08 49.17680 -2.73054 32504 ft 433 kts 203°
2026-04-30 13:08 49.14975 -2.75108 32725 ft 434 kts 203°
2026-04-30 13:08 49.12279 -2.77154 33000 ft 432 kts 203°
2026-04-30 13:09 49.09589 -2.79193 33298 ft 431 kts 203°
2026-04-30 13:09 49.06902 -2.81228 33544 ft 431 kts 203°
2026-04-30 13:09 49.04215 -2.83259 33753 ft 431 kts 203°
2026-04-30 13:09 49.01525 -2.85290 33954 ft 432 kts 203°
2026-04-30 13:10 48.99707 -2.86661 34090 ft 432 kts 203°
2026-04-30 13:10 48.97055 -2.88660 34308 ft 431 kts 203°
2026-04-30 13:10 48.94332 -2.90710 34492 ft 431 kts 204°
2026-04-30 13:10 48.91676 -2.92707 34642 ft 432 kts 204°
2026-04-30 13:11 48.88949 -2.94756 34818 ft 432 kts 204°
2026-04-30 13:11 48.86296 -2.96746 34993 ft 431 kts 204°
2026-04-30 13:11 48.83558 -2.98796 35031 ft 434 kts 204°
2026-04-30 13:12 48.78138 -3.02849 35033 ft 433 kts 204°
2026-04-30 13:12 48.72786 -3.06843 35041 ft 430 kts 204°
2026-04-30 13:13 48.64769 -3.12806 35023 ft 426 kts 204°
2026-04-30 13:14 48.56812 -3.18702 35031 ft 423 kts 204°
2026-04-30 13:14 48.48881 -3.24559 35043 ft 423 kts 204°
2026-04-30 13:15 48.40928 -3.30411 35036 ft 425 kts 204°
2026-04-30 13:16 48.35599 -3.34321 35038 ft 427 kts 204°
2026-04-30 13:16 48.30242 -3.38243 35038 ft 429 kts 204°
2026-04-30 13:17 48.22169 -3.44135 35037 ft 431 kts 205°
2026-04-30 13:18 48.14067 -3.50029 35028 ft 432 kts 205°
2026-04-30 13:18 48.05995 -3.55879 35037 ft 431 kts 205°
2026-04-30 13:19 48.00602 -3.59777 35029 ft 430 kts 205°
2026-04-30 13:19 47.95215 -3.63660 35043 ft 430 kts 205°
2026-04-30 13:20 47.89835 -3.67531 35044 ft 429 kts 205°
2026-04-30 13:20 47.84459 -3.71389 35042 ft 430 kts 205°
2026-04-30 13:21 47.79078 -3.75241 35048 ft 429 kts 205°
2026-04-30 13:22 47.71011 -3.81000 35048 ft 429 kts 205°
2026-04-30 13:22 47.62923 -3.86755 35058 ft 431 kts 205°
2026-04-30 13:23 47.54777 -3.92531 35062 ft 434 kts 205°
2026-04-30 13:24 47.43812 -4.00274 35056 ft 439 kts 205°
2026-04-30 13:25 47.32754 -4.08046 35059 ft 441 kts 205°
2026-04-30 13:26 47.18934 -4.17710 35058 ft 440 kts 206°
2026-04-30 13:28 47.05084 -4.27249 35066 ft 439 kts 202°
2026-04-30 13:28 46.96497 -4.31977 35064 ft 440 kts 201°
2026-04-30 13:29 46.85013 -4.38163 35063 ft 440 kts 201°
2026-04-30 13:31 46.70647 -4.45981 35071 ft 442 kts 201°
2026-04-30 13:32 46.56219 -4.53792 35072 ft 443 kts 201°
2026-04-30 13:34 46.36092 -4.64611 35077 ft 444 kts 201°
2026-04-30 13:35 46.24488 -4.70810 35075 ft 444 kts 201°
2026-04-30 13:36 46.12901 -4.76973 35080 ft 444 kts 201°
2026-04-30 13:36 46.04222 -4.81571 35075 ft 442 kts 201°
2026-04-30 13:37 45.95586 -4.86130 35083 ft 440 kts 201°
2026-04-30 13:38 45.86992 -4.90653 35086 ft 437 kts 201°
2026-04-30 13:39 45.75587 -4.96631 35088 ft 436 kts 201°
2026-04-30 13:40 45.67047 -5.01092 35087 ft 436 kts 201°
2026-04-30 13:40 45.61349 -5.04059 35096 ft 436 kts 202°
2026-04-30 13:41 45.55641 -5.07026 35090 ft 437 kts 202°
2026-04-30 13:41 45.49926 -5.09989 35089 ft 437 kts 202°
2026-04-30 13:42 45.44209 -5.12947 35085 ft 437 kts 202°
2026-04-30 13:42 45.35639 -5.17370 35091 ft 436 kts 202°
2026-04-30 13:43 45.29972 -5.20287 35094 ft 436 kts 202°
2026-04-30 13:43 45.24270 -5.23214 35088 ft 435 kts 202°
2026-04-30 13:44 45.18579 -5.26131 35091 ft 435 kts 202°
2026-04-30 13:44 45.12888 -5.29041 35094 ft 434 kts 202°
2026-04-30 13:45 45.04364 -5.33389 35094 ft 434 kts 202°
2026-04-30 13:46 44.98680 -5.36281 35103 ft 434 kts 203°
2026-04-30 13:46 44.93000 -5.39164 35102 ft 434 kts 203°
2026-04-30 13:47 44.87319 -5.42042 35096 ft 434 kts 202°
2026-04-30 13:47 44.81644 -5.44911 35089 ft 433 kts 203°
2026-04-30 13:48 44.75968 -5.47774 35105 ft 433 kts 203°
2026-04-30 13:48 44.70292 -5.50632 35097 ft 433 kts 203°
2026-04-30 13:49 44.64616 -5.53485 35096 ft 433 kts 203°
2026-04-30 13:49 44.58907 -5.56213 35098 ft 434 kts 200°
2026-04-30 13:50 44.53080 -5.58475 35096 ft 435 kts 198°
2026-04-30 13:50 44.44338 -5.61736 35100 ft 435 kts 199°
2026-04-30 13:51 44.38492 -5.63954 35100 ft 435 kts 199°
2026-04-30 13:51 44.32655 -5.66185 35099 ft 435 kts 199°
2026-04-30 13:52 44.26815 -5.68417 35092 ft 435 kts 199°
2026-04-30 13:52 44.20979 -5.70642 35095 ft 435 kts 199°
2026-04-30 13:53 44.15145 -5.72861 35096 ft 434 kts 199°
2026-04-30 13:53 44.09326 -5.75071 35091 ft 433 kts 199°
2026-04-30 13:54 44.03528 -5.77267 35096 ft 431 kts 198°
2026-04-30 13:54 43.97752 -5.79451 35092 ft 429 kts 198°
2026-04-30 13:55 43.91997 -5.81622 35084 ft 428 kts 198°
2026-04-30 13:55 43.86261 -5.83782 35081 ft 426 kts 198°
2026-04-30 13:56 43.80544 -5.85931 35081 ft 425 kts 198°
2026-04-30 13:56 43.74875 -5.88058 35076 ft 425 kts 198°
2026-04-30 13:57 43.69174 -5.90192 35077 ft 425 kts 198°
2026-04-30 13:57 43.63472 -5.92323 35078 ft 425 kts 198°
2026-04-30 13:58 43.54909 -5.95515 35108 ft 425 kts 198°
2026-04-30 13:59 43.49190 -5.97641 35098 ft 426 kts 198°
2026-04-30 13:59 43.43460 -5.99767 35104 ft 426 kts 198°
2026-04-30 14:00 43.37723 -6.01892 35087 ft 427 kts 198°
2026-04-30 14:00 43.29103 -6.05076 35084 ft 428 kts 198°
2026-04-30 14:01 43.23342 -6.07198 35059 ft 428 kts 198°
2026-04-30 14:01 43.17596 -6.09311 35067 ft 427 kts 198°
2026-04-30 14:02 43.11859 -6.11417 35048 ft 426 kts 198°
2026-04-30 14:02 43.06144 -6.13511 35024 ft 425 kts 198°
2026-04-30 14:03 43.01370 -6.15257 35039 ft 423 kts 198°
2026-04-30 14:03 42.95725 -6.17317 35041 ft 422 kts 198°
2026-04-30 14:04 42.90056 -6.19383 35046 ft 421 kts 198°
2026-04-30 14:04 42.84401 -6.21441 35033 ft 421 kts 198°
2026-04-30 14:05 42.78749 -6.23492 35045 ft 420 kts 198°
2026-04-30 14:05 42.73100 -6.25538 35040 ft 420 kts 198°
2026-04-30 14:06 42.68369 -6.27250 35046 ft 420 kts 198°
2026-04-30 14:07 42.55785 -6.31789 35047 ft 422 kts 198°
2026-04-30 14:08 42.47262 -6.34852 35041 ft 423 kts 198°
2026-04-30 14:08 42.38760 -6.37899 35052 ft 423 kts 198°
2026-04-30 14:09 42.33063 -6.39935 35056 ft 424 kts 197°
2026-04-30 14:10 42.24501 -6.42990 35052 ft 425 kts 197°
2026-04-30 14:10 42.18783 -6.45025 35049 ft 425 kts 197°
2026-04-30 14:11 42.13070 -6.47054 35068 ft 425 kts 197°
2026-04-30 14:11 42.07355 -6.49080 35058 ft 424 kts 197°
2026-04-30 14:12 42.01658 -6.51096 35054 ft 423 kts 197°
2026-04-30 14:12 41.95976 -6.53103 35062 ft 421 kts 197°
2026-04-30 14:13 41.90316 -6.55099 35071 ft 420 kts 197°
2026-04-30 14:13 41.84665 -6.57088 35064 ft 419 kts 197°
2026-04-30 14:14 41.79030 -6.59068 35059 ft 418 kts 196°
2026-04-30 14:14 41.73405 -6.61041 35067 ft 418 kts 196°
2026-04-30 14:15 41.67785 -6.63012 35069 ft 417 kts 197°
2026-04-30 14:15 41.62168 -6.64991 35066 ft 417 kts 197°
2026-04-30 14:16 41.56555 -6.66967 35069 ft 417 kts 196°
2026-04-30 14:16 41.50940 -6.68939 35074 ft 417 kts 196°
2026-04-30 14:17 41.45321 -6.70912 35068 ft 418 kts 196°
2026-04-30 14:17 41.39683 -6.72885 35065 ft 419 kts 196°
2026-04-30 14:18 41.34033 -6.74860 35066 ft 420 kts 196°
2026-04-30 14:18 41.25575 -6.77809 35067 ft 421 kts 196°
2026-04-30 14:19 41.17061 -6.80769 35076 ft 422 kts 196°
2026-04-30 14:20 41.11376 -6.82741 35063 ft 422 kts 195°
2026-04-30 14:20 41.02848 -6.85693 35077 ft 422 kts 195°
2026-04-30 14:21 40.97173 -6.87653 35075 ft 421 kts 195°
2026-04-30 14:22 40.88682 -6.90581 35065 ft 420 kts 195°
2026-04-30 14:22 40.80220 -6.93488 35074 ft 418 kts 195°
2026-04-30 14:23 40.68997 -6.97333 35073 ft 418 kts 195°
2026-04-30 14:24 40.60568 -7.00213 35083 ft 417 kts 195°
2026-04-30 14:25 40.49318 -7.04045 35082 ft 418 kts 195°
2026-04-30 14:26 40.40866 -7.06915 35083 ft 418 kts 195°
2026-04-30 14:27 40.32405 -7.09782 35085 ft 419 kts 195°
2026-04-30 14:27 40.26746 -7.11657 35089 ft 420 kts 194°
2026-04-30 14:28 40.18188 -7.14168 35090 ft 420 kts 193°
2026-04-30 14:28 40.12474 -7.15825 35086 ft 421 kts 193°
2026-04-30 14:29 40.02016 -7.18890 35086 ft 421 kts 193°
2026-04-30 14:31 39.86762 -7.23366 35087 ft 421 kts 193°
2026-04-30 14:31 39.78233 -7.25859 35075 ft 420 kts 193°
2026-04-30 14:32 39.69679 -7.28352 35089 ft 420 kts 193°
2026-04-30 14:33 39.63976 -7.30012 35079 ft 420 kts 193°
2026-04-30 14:33 39.55430 -7.32493 35079 ft 419 kts 193°
2026-04-30 14:34 39.49733 -7.34143 35080 ft 419 kts 193°
2026-04-30 14:34 39.44036 -7.35791 35079 ft 420 kts 193°
2026-04-30 14:35 39.35476 -7.38261 35088 ft 420 kts 193°
2026-04-30 14:36 39.29761 -7.39907 35079 ft 421 kts 193°
2026-04-30 14:36 39.25007 -7.41274 35082 ft 422 kts 193°
2026-04-30 14:37 39.19271 -7.42921 35082 ft 422 kts 193°
2026-04-30 14:37 39.13529 -7.44567 35074 ft 423 kts 193°
2026-04-30 14:38 39.07775 -7.46214 35067 ft 424 kts 193°
2026-04-30 14:38 39.02023 -7.47857 35081 ft 424 kts 193°
2026-04-30 14:39 38.96262 -7.49500 35070 ft 424 kts 193°
2026-04-30 14:39 38.90504 -7.51139 35072 ft 424 kts 193°
2026-04-30 14:40 38.81864 -7.53595 35075 ft 424 kts 193°
2026-04-30 14:40 38.76103 -7.55228 35066 ft 424 kts 193°
2026-04-30 14:41 38.70338 -7.56860 35069 ft 424 kts 193°
2026-04-30 14:41 38.64571 -7.58490 35071 ft 424 kts 193°
2026-04-30 14:42 38.58800 -7.60118 35082 ft 424 kts 193°
2026-04-30 14:42 38.53030 -7.61744 35076 ft 425 kts 193°
2026-04-30 14:43 38.47262 -7.63366 35071 ft 425 kts 193°
2026-04-30 14:43 38.41490 -7.64986 35072 ft 425 kts 193°
2026-04-30 14:44 38.35718 -7.66604 35070 ft 425 kts 193°
2026-04-30 14:44 38.29947 -7.68219 35087 ft 425 kts 193°
2026-04-30 14:45 38.24211 -7.69822 35085 ft 425 kts 193°
2026-04-30 14:45 38.18437 -7.71432 35093 ft 425 kts 193°
2026-04-30 14:46 38.12657 -7.73042 35094 ft 425 kts 193°
2026-04-30 14:46 38.06876 -7.74650 35092 ft 425 kts 193°
2026-04-30 14:47 38.01096 -7.76254 35093 ft 425 kts 193°
2026-04-30 14:47 37.95312 -7.77857 35075 ft 425 kts 193°
2026-04-30 14:48 37.89533 -7.79456 35067 ft 425 kts 193°
2026-04-30 14:48 37.83752 -7.81053 35069 ft 425 kts 193°
2026-04-30 14:49 37.77964 -7.82649 35069 ft 425 kts 193°
2026-04-30 14:49 37.72182 -7.84241 35072 ft 425 kts 193°
2026-04-30 14:50 37.63504 -7.86626 35069 ft 425 kts 194°
2026-04-30 14:51 37.54826 -7.89006 35074 ft 426 kts 194°
2026-04-30 14:52 37.46144 -7.91380 35077 ft 426 kts 194°
2026-04-30 14:52 37.37457 -7.93750 35077 ft 426 kts 194°
2026-04-30 14:53 37.28766 -7.96116 35082 ft 426 kts 194°
2026-04-30 14:54 37.17171 -7.99264 35089 ft 426 kts 194°
2026-04-30 14:55 37.08472 -8.01619 35105 ft 427 kts 194°
2026-04-30 14:56 36.96870 -8.04751 35103 ft 426 kts 194°
2026-04-30 14:57 36.88173 -8.07093 35100 ft 426 kts 194°
2026-04-30 14:58 36.76580 -8.10206 35103 ft 426 kts 194°
2026-04-30 14:58 36.67925 -8.12524 35100 ft 426 kts 194°
2026-04-30 15:00 36.53425 -8.16395 35104 ft 427 kts 194°
2026-04-30 15:01 36.41808 -8.19485 35106 ft 427 kts 194°
2026-04-30 15:01 36.33093 -8.21798 35107 ft 427 kts 194°
2026-04-30 15:02 36.27273 -8.23339 35106 ft 428 kts 194°
2026-04-30 15:03 36.12721 -8.27183 35103 ft 428 kts 194°
2026-04-30 15:04 35.98163 -8.31015 35102 ft 428 kts 194°
2026-04-30 15:06 35.83745 -8.35468 35111 ft 427 kts 197°
2026-04-30 15:07 35.72250 -8.39148 35109 ft 426 kts 197°
2026-04-30 15:08 35.60814 -8.42756 35103 ft 425 kts 197°
2026-04-30 15:09 35.46515 -8.47252 35102 ft 424 kts 197°
2026-04-30 15:10 35.35097 -8.50831 35108 ft 423 kts 197°
2026-04-30 15:11 35.17945 -8.56189 35092 ft 425 kts 197°
2026-04-30 15:13 35.03640 -8.60639 35099 ft 426 kts 197°
2026-04-30 15:14 34.83478 -8.66883 35101 ft 428 kts 197°
2026-04-30 15:17 34.57445 -8.74901 35105 ft 431 kts 198°
2026-04-30 15:18 34.43162 -8.80248 35102 ft 427 kts 213°
2026-04-30 15:19 34.36114 -8.86759 35098 ft 426 kts 221°